FENGYUN 1C DEB, 30557

Orbit data source: Space-Track

FENGYUN 1C DEB, 30557 is space debris in SSO originally from a launch on Mon, 10 May 1999 UTC launched from the Taiyaun Space Center, China (TSC). Fengyun 1C debris stems from the Chinese weather satellite Fengyun-1C, which was intentionally destroyed by a Chinese anti-satellite missile in 2007. This event dramatically increased the amount of space debris, with thousands of trackable fragments posing hazards to satellites and human spaceflight. The Fengyun 1C debris cloud has become a focal point in discussions about space sustainability and the need for international regulations to prevent the creation of new debris.

Loading next visibility...
Identifier
30557, 1999-025AKX
Orbit
SSO
Country
Flag of CNCN / PRC
Related business
Manufacturer
Unknown
Mission
Spacecraft
Bus & Motor
Unknown
Mass
Unknown
Launch date (UTC)
1999-05-10 (27 years ago)
Launch vehicle
Unknown
Launch site
Taiyaun Space Center, China (TSC)
Object type
Payload
Rocket body
Debris
Shape & HBR
Unknown shape, 0.1 m
Radar Cross Section
Medium (>0.1 m² and <1 m²)

Expand to show TLE details & history
Last TLE update: 1 day ago

TLE from 1 day ago
0 FENGYUN 1C DEB
1 30557U 99025AKX 26236.13936905  .00001523  00000-0  84087-3 0  9991
2 30557  98.9050 304.4321 0067560 232.6005 126.9004 14.11816175998892
Epoch: 2026-08-24T03:20Z
TLE epoch observation values (Epoch: 2026-08-24T03:20:41.485Z)
Latitude
-0.00004°
Longitude
-78.16611°
Altitude
885.61 km
Speed
7.394 km/s
True Right ascension
20h 17m 43s
True Declination
0° 00' 00"
Sunlit
Object was in full shadow at epoch
Visualization orbit readout
Latitude
Unknown
Longitude
Unknown
Altitude
Unknown
Speed
Unknown
Apparent Right ascension
Unknown
Apparent Declination
Unknown
Sunlit
N/A
Visualization observer readout
Local Sidereal Time
18:45:28
Azimuth
Unknown
Elevation
Unknown
Doppler factor
Unknown
Orbital elements
Apogee altitude
899.178 km
Perigee altitude
801.507 km
Semi-major axis
7,228.479 km
Eccentricity
0.00676
Inclination
98.905°
RAAN
304.4321°
Arg. of periapsis
232.6005°
True anomaly
127.51636°
Mean anomaly
126.9004°
Eccentric anomaly
127.20869°
Mean motion
3.53161 °/min
Orbital period
101.94 mins
BSTAR
0.00084087
Loading maneuver chart data...
Computing Atmospheric mass density...
Loading historical data...
Loading historical data...
Loading historical data...
Loading historical data...
Loading historical data...
Loading historical data...
Loading historical data...

Documentation

Showing up to 5 results
|